FW6618 Weather Reports


Display with metric or nautical units.
time (UTC)temp
F
wind
direction
speed
MPH
gust
MPH
rain 1hr
in
rain 24hr
in
rain mn
in
humidity
%
barometer
mb
20260905221551 66 0 0.0 1.0 0.00 0.00 0.00 89 1014.2
20260905221022 67 0 0.0 2.0 0.00 0.00 0.00 87 1014.3
20260905220521 67 299 0.0 2.0 0.00 0.00 0.00 84 1014.2
20260905220047 68 295 0.0 3.0 0.00 0.00 0.00 82 1014.1
20260905215524 68 331 1.0 3.0 0.00 0.00 0.00 82 1014.0
20260905215023 69 300 1.0 3.0 0.00 0.00 0.00 84 1014.0
20260905214544 69 351 1.0 3.0 0.00 0.00 0.00 83 1013.9
20260905214024 69 320 1.0 3.0 0.00 0.00 0.00 84 1014.0
20260905213521 69 302 0.0 2.0 0.00 0.00 0.00 87 1014.0
20260905213052 67 326 0.0 3.0 0.00 0.00 0.00 87 1014.0
20260905212521 67 87 0.0 3.0 0.00 0.00 0.00 85 1013.9
20260905212019 68 335 1.0 3.0 0.00 0.00 0.00 85 1013.9
20260905211544 68 18 0.0 4.0 0.00 0.00 0.00 84 1013.9
20260905211019 68 250 0.0 4.0 0.00 0.00 0.00 83 1013.9
20260905210518 69 54 1.0 6.0 0.00 0.00 0.00 83 1013.9
20260905210040 69 231 2.0 6.0 0.00 0.00 0.00 86 1013.7
20260905205527 69 224 1.0 4.0 0.00 0.00 0.00 85 1013.8
20260905205024 68 323 1.0 4.0 0.00 0.00 0.00 87 1013.7
20260905204543 68 149 2.0 4.0 0.00 0.00 0.00 87 1013.8
20260905204023 67 288 0.0 4.0 0.00 0.00 0.00 89 1013.7
20260905203521 67 0 0.0 4.0 0.00 0.00 0.00 90 1013.7
20260905203052 66 0 0.0 2.0 0.00 0.00 0.00 91 1013.8
20260905202521 67 304 0.0 2.0 0.00 0.00 0.00 90 1013.7
20260905202020 67 0 0.0 4.0 0.00 0.00 0.00 90 1013.7
20260905201554 67 0 0.0 5.0 0.00 0.00 0.00 89 1013.6
20260905201017 68 0 1.0 5.0 0.00 0.00 0.00 87 1013.6
20260905200520 69 333 1.0 4.0 0.00 0.00 0.00 85 1013.6
20260905200044 69 150 1.0 3.0 0.00 0.00 0.00 86 1013.5
20260905195526 68 317 1.0 3.0 0.00 0.00 0.00 86 1013.4
20260905195026 68 135 0.0 4.0 0.00 0.00 0.00 86 1013.6
20260905194545 68 0 1.0 4.0 0.00 0.00 0.00 84 1013.6
20260905194023 69 0 0.0 4.0 0.00 0.00 0.00 84 1013.6
20260905193522 69 22 0.0 4.0 0.00 0.00 0.00 82 1013.6
20260905193042 70 1 1.0 3.0 0.00 0.00 0.00 80 1013.7
20260905192519 70 281 0.0 2.0 0.00 0.00 0.00 80 1013.4
20260905192019 70 206 0.0 5.0 0.00 0.00 0.00 81 1013.5
20260905191540 70 124 1.0 5.0 0.00 0.00 0.00 81 1013.5
20260905191024 69 299 0.0 4.0 0.00 0.00 0.00 82 1013.5
20260905190521 69 246 1.0 2.0 0.00 0.00 0.00 81 1013.5
20260905190044 69 301 0.0 2.0 0.00 0.00 0.00 78 1013.5
20260905185523 69 84 1.0 5.0 0.00 0.00 0.00 79 1013.6
20260905185021 69 271 0.0 6.0 0.00 0.00 0.00 80 1013.6
20260905184548 69 155 2.0 6.0 0.00 0.00 0.00 79 1013.5
20260905184019 69 270 2.0 5.0 0.00 0.00 0.00 78 1013.4
20260905183520 69 140 1.0 3.0 0.00 0.00 0.00 83 1013.5
20260905183056 69 120 1.0 3.0 0.00 0.00 0.00 84 1013.4
20260905182524 68 0 0.0 3.0 0.00 0.00 0.00 84 1013.3
20260905182029 67 0 0.0 2.0 0.00 0.00 0.00 86 1013.5
20260905181540 67 0 0.0 2.0 0.00 0.00 0.00 89 1013.4
20260905181021 67 345 0.0 2.0 0.00 0.00 0.00 87 1013.5
20260905180521 67 332 0.0 2.0 0.00 0.00 0.00 84 1013.4
20260905180049 68 0 0.0 0.0 0.00 0.00 0.00 84 1013.4
20260905175520 69 0 0.0 0.0 0.00 0.00 0.00 82 1013.5
20260905175019 69 0 0.0 1.0 0.00 0.00 0.00 79 1013.5
20260905174541 70 0 0.0 4.0 0.00 0.00 0.00 75 1013.4
20260905174017 70 304 0.0 4.0 0.00 0.00 0.00 77 1013.4
20260905173524 70 0 1.0 3.0 0.00 0.00 0.00 77 1013.4
20260905173038 70 171 0.0 2.0 0.00 0.00 0.00 75 1013.4
20260905172521 70 0 0.0 5.0 0.00 0.00 0.00 76 1013.3
20260905172024 69 131 1.0 5.0 0.00 0.00 0.00 80 1013.3
20260905171540 69 136 1.0 6.0 0.00 0.00 0.00 77 1013.4
20260905171020 69 226 1.0 6.0 0.00 0.00 0.00 77 1013.3
20260905170519 69 240 2.0 5.0 0.00 0.00 0.00 76 1013.2
20260905170047 70 147 0.0 3.0 0.00 0.00 0.00 77 1013.3
20260905165519 70 106 1.0 6.0 0.00 0.00 0.00 76 1013.3
20260905165017 70 243 1.0 6.0 0.00 0.00 0.00 77 1013.4
20260905164541 69 269 1.0 3.0 0.00 0.00 0.00 80 1013.2
20260905164024 69 22 1.0 3.0 0.00 0.00 0.00 79 1013.2
20260905163523 68 82 1.0 3.0 0.00 0.00 0.00 80 1013.3
20260905163045 68 145 1.0 3.0 0.00 0.00 0.00 80 1013.3
20260905162522 68 42 1.0 3.0 0.00 0.00 0.00 83 1013.5
20260905162019 69 30 0.0 4.0 0.00 0.00 0.00 80 1013.4
20260905161541 69 135 1.0 4.0 0.00 0.00 0.00 79 1013.4
20260905161024 69 127 1.0 4.0 0.00 0.00 0.00 82 1013.5
20260905160521 69 0 0.0 0.0 0.00 0.00 0.00 81 1013.3
20260905160041 68 0 0.0 0.0 0.00 0.00 0.00 83 1013.4
20260905155529 68 311 0.0 0.0 0.00 0.00 0.00 84 1013.3
20260905155023 68 0 0.0 1.0 0.00 0.00 0.00 85 1013.4
20260905154539 68 0 0.0 2.0 0.00 0.00 0.00 84 1013.4
20260905154024 68 347 0.0 2.0 0.00 0.00 0.00 82 1013.4
20260905153521 69 96 0.0 2.0 0.00 0.00 0.00 81 1013.6
20260905153043 69 238 1.0 2.0 0.00 0.00 0.00 84 1013.6
20260905152522 68 164 1.0 2.0 0.00 0.00 0.00 85 1013.6
20260905152020 68 0 0.0 2.0 0.00 0.00 0.00 87 1013.8
20260905151548 67 178 0.0 2.0 0.00 0.00 0.00 86 1013.7
20260905151018 67 124 0.0 3.0 0.00 0.00 0.00 86 1013.6
20260905150524 67 301 0.0 3.0 0.00 0.00 0.00 86 1013.7
20260905150051 67 197 1.0 3.0 0.00 0.00 0.00 85 1013.8
20260905145526 67 271 0.0 2.0 0.00 0.00 0.00 85 1013.7
20260905145024 66 245 0.0 3.0 0.00 0.00 0.00 88 1013.7
20260905144547 66 277 0.0 3.0 0.00 0.00 0.00 87 1013.8
20260905144023 66 146 0.0 2.0 0.00 0.00 0.00 87 1013.8
20260905143524 66 162 0.0 2.0 0.00 0.00 0.00 87 1013.7
20260905143044 66 58 1.0 2.0 0.00 0.00 0.00 87 1013.7
20260905142520 65 210 0.0 2.0 0.00 0.00 0.00 89 1013.7
20260905142019 65 246 0.0 2.0 0.00 0.00 0.00 88 1013.6
20260905141542 65 0 0.0 2.0 0.00 0.00 0.00 89 1013.8
20260905141027 65 190 1.0 3.0 0.00 0.00 0.00 88 1013.7
20260905140524 65 245 0.0 3.0 0.00 0.00 0.00 90 1013.8
20260905140049 65 224 2.0 3.0 0.00 0.00 0.00 89 1013.7
20260905135524 64 0 1.0 4.0 0.00 0.00 0.00 91 1013.7
20260905135024 64 0 0.0 4.0 0.00 0.00 0.00 92 1013.7
20260905134549 63 207 0.0 1.0 0.00 0.00 0.00 93 1013.8
20260905134025 63 193 0.0 2.0 0.00 0.00 0.00 92 1013.8
20260905133518 62 192 0.0 2.0 0.00 0.00 0.00 94 1013.8
20260905133038 62 192 0.0 1.0 0.00 0.00 0.00 95 1013.8
20260905132520 61 0 0.0 0.0 0.00 0.00 0.00 96 1013.9
20260905132024 61 0 0.0 0.0 0.00 0.00 0.00 96 1013.8
20260905131545 60 0 0.0 0.0 0.00 0.00 0.00 97 1013.8
20260905131026 60 193 0.0 0.0 0.00 0.00 0.00 97 1013.8
20260905130524 60 193 0.0 2.0 0.00 0.00 0.00 97 1013.8
20260905130044 60 0 0.0 2.0 0.00 0.00 0.00 97 1013.6
20260905125519 60 198 0.0 2.0 0.00 0.00 0.00 97 1013.7
20260905125019 60 210 1.0 2.0 0.00 0.00 0.00 98 1013.7
20260905124541 59 0 0.0 2.0 0.00 0.00 0.00 98 1013.6
20260905124024 59 0 0.0 2.0 0.00 0.00 0.00 98 1013.6
20260905123524 59 168 0.0 2.0 0.00 0.00 0.00 98 1013.6
20260905123045 59 0 0.0 2.0 0.00 0.00 0.00 98 1013.6
20260905122525 58 200 0.0 2.0 0.00 0.00 0.00 98 1013.5
20260905122028 58 200 0.0 2.0 0.00 0.00 0.00 98 1013.4
20260905121545 58 0 0.0 1.0 0.00 0.00 0.00 98 1013.5
20260905121026 58 244 0.0 1.0 0.00 0.00 0.00 98 1013.5
20260905120523 58 0 0.0 1.0 0.00 0.00 0.00 98 1013.4
20260905120041 58 0 0.0 0.0 0.00 0.00 0.00 98 1013.5
20260905115525 57 0 0.0 0.0 0.00 0.00 0.00 98 1013.4
20260905115018 57 0 0.0 0.0 0.00 0.00 0.00 98 1013.3
20260905114545 57 0 0.0 1.0 0.00 0.00 0.00 98 1013.2
20260905114019 57 0 0.0 1.0 0.00 0.00 0.00 98 1013.3
20260905113521 57 0 0.0 1.0 0.00 0.00 0.00 98 1013.1
20260905113042 56 0 0.0 1.0 0.00 0.00 0.00 98 1013.2
20260905112519 56 0 0.0 0.0 0.00 0.00 0.00 98 1013.3
20260905112021 56 0 0.0 0.0 0.00 0.00 0.00 97 1013.2
20260905111550 56 0 0.0 1.0 0.00 0.00 0.00 97 1013.1
20260905111021 56 0 0.0 1.0 0.00 0.00 0.00 97 1013.2
20260905110520 56 200 0.0 0.0 0.00 0.00 0.00 97 1013.2
20260905110046 56 0 0.0 0.0 0.00 0.00 0.00 97 1013.2
20260905105519 56 204 0.0 0.0 0.00 0.00 0.00 97 1013.1
20260905105018 56 0 0.0 1.0 0.00 0.00 0.00 97 1012.9
20260905104542 56 0 0.0 1.0 0.00 0.00 0.00 97 1012.8
20260905104020 56 0 0.0 1.0 0.00 0.00 0.00 97 1013.0
20260905103517 56 0 0.0 1.0 0.00 0.00 0.00 97 1012.9
20260905103040 56 0 0.0 0.0 0.00 0.00 0.00 97 1012.9
20260905102519 56 0 0.0 0.0 0.00 0.00 0.00 97 1012.7
20260905102021 56 0 0.0 0.0 0.00 0.00 0.00 97 1012.7
20260905101539 56 0 0.0 0.0 0.00 0.00 0.00 97 1012.7
20260905101019 56 0 0.0 0.0 0.00 0.00 0.00 97 1012.7
20260905100519 56 0 0.0 0.0 0.00 0.00 0.00 97 1012.7
20260905100043 56 0 0.0 0.0 0.00 0.00 0.00 97 1012.6
20260905095520 56 0 0.0 0.0 0.00 0.00 0.00 97 1012.7
20260905095023 56 0 0.0 0.0 0.00 0.00 0.00 97 1012.6
20260905094539 56 0 0.0 0.0 0.00 0.00 0.00 97 1012.8
20260905094019 56 0 0.0 0.0 0.00 0.00 0.00 97 1012.7
20260905093519 56 0 0.0 0.0 0.00 0.00 0.00 97 1012.7
20260905093043 56 0 0.0 0.0 0.00 0.00 0.00 97 1012.8
20260905092521 56 0 0.0 0.0 0.00 0.00 0.00 97 1012.6
20260905092025 56 0 0.0 0.0 0.00 0.00 0.00 97 1012.7
20260905091540 56 0 0.0 0.0 0.00 0.00 0.00 97 1012.6
20260905091021 56 0 0.0 0.0 0.00 0.00 0.00 97 1012.6
20260905090520 56 0 0.0 0.0 0.00 0.00 0.00 97 1012.5
20260905090059 56 0 0.0 0.0 0.00 0.00 0.00 97 1012.5
20260905085520 56 0 0.0 0.0 0.00 0.00 0.00 97 1012.5
20260905085023 56 0 0.0 0.0 0.00 0.00 0.00 97 1012.5
20260905084544 56 0 0.0 0.0 0.00 0.00 0.00 97 1012.4
20260905084023 55 0 0.0 0.0 0.00 0.00 0.00 97 1012.3
20260905083519 56 0 0.0 0.0 0.00 0.00 0.00 97 1012.5
20260905083042 56 0 0.0 0.0 0.00 0.00 0.00 97 1012.4
20260905082519 56 0 0.0 0.0 0.00 0.00 0.00 97 1012.3
20260905082019 56 0 0.0 0.0 0.00 0.00 0.00 97 1012.3
20260905081546 56 0 0.0 0.0 0.00 0.00 0.00 97 1012.3
20260905081024 56 0 0.0 0.0 0.00 0.00 0.00 97 1012.4
20260905080525 56 0 0.0 0.0 0.00 0.00 0.00 97 1012.4
20260905080044 56 0 0.0 0.0 0.00 0.00 0.00 97 1012.4
20260905075521 56 0 0.0 0.0 0.00 0.00 0.00 97 1012.3
20260905075021 56 0 0.0 0.0 0.00 0.00 0.00 97 1012.4
20260905074546 56 0 0.0 0.0 0.00 0.00 0.00 97 1012.4
20260905074022 57 0 0.0 0.0 0.00 0.00 0.00 97 1012.5
20260905073528 57 0 0.0 0.0 0.00 0.00 0.00 97 1012.5
20260905073046 57 0 0.0 0.0 0.00 0.00 0.00 97 1012.4
20260905072518 57 0 0.0 0.0 0.00 0.00 0.00 97 1012.4
20260905072026 57 0 0.0 0.0 0.00 0.00 0.00 97 1012.5
20260905071545 57 0 0.0 0.0 0.00 0.00 0.00 97 1012.7
20260905071024 57 0 0.0 0.0 0.00 0.00 0.00 97 1012.7
20260905070523 57 0 0.0 0.0 0.00 0.00 0.00 97 1012.7
20260905070048 57 0 0.0 0.0 0.00 0.00 0.00 97 1012.8
20260905065523 57 0 0.0 0.0 0.00 0.00 0.00 97 1012.8
20260905065019 57 0 0.0 0.0 0.00 0.00 0.00 97 1012.9
20260905064543 57 0 0.0 0.0 0.00 0.00 0.00 97 1012.8
20260905064025 58 0 0.0 0.0 0.00 0.00 0.00 97 1012.8
20260905063522 58 0 0.0 0.0 0.00 0.00 0.00 97 1012.7
20260905063043 58 0 0.0 0.0 0.00 0.00 0.00 97 1012.8
20260905062524 58 0 0.0 0.0 0.00 0.00 0.00 97 1012.8
20260905062021 58 0 0.0 0.0 0.00 0.00 0.00 97 1012.9
20260905061545 58 0 0.0 0.0 0.00 0.00 0.00 97 1012.9
20260905061023 58 0 0.0 0.0 0.00 0.00 0.00 97 1013.1
20260905060524 59 0 0.0 0.0 0.00 0.00 0.00 97 1013.1
20260905060046 59 0 0.0 0.0 0.00 0.00 0.00 97 1013.1
20260905055526 59 0 0.0 0.0 0.00 0.00 0.00 97 1013.1
20260905055024 59 0 0.0 0.0 0.00 0.00 0.00 97 1012.9
20260905054543 59 0 0.0 0.0 0.00 0.00 0.00 97 1013.0
20260905054022 59 0 0.0 0.0 0.00 0.00 0.00 97 1013.0
20260905053523 59 0 0.0 0.0 0.00 0.00 0.00 96 1013.1
20260905053039 59 0 0.0 0.0 0.00 0.00 0.00 96 1013.1
20260905052523 60 0 0.0 0.0 0.00 0.00 0.00 96 1013.0
20260905052019 60 0 0.0 0.0 0.00 0.00 0.00 96 1013.0
20260905051541 60 0 0.0 0.0 0.00 0.00 0.00 96 1012.9
20260905051023 60 0 0.0 0.0 0.00 0.00 0.00 96 1013.1
20260905050524 60 0 0.0 0.0 0.00 0.00 0.00 96 1013.1
20260905050044 61 0 0.0 0.0 0.00 0.00 0.00 95 1013.1
20260905045527 61 0 0.0 0.0 0.00 0.00 0.00 95 1013.2
20260905045021 61 0 0.0 0.0 0.00 0.00 0.00 95 1013.1
20260905044543 61 0 0.0 0.0 0.00 0.00 0.00 95 1013.2
20260905044021 61 0 0.0 0.0 0.00 0.00 0.00 95 1013.3
20260905043519 61 0 0.0 0.0 0.00 0.00 0.00 95 1013.3
20260905043042 62 0 0.0 0.0 0.00 0.00 0.00 95 1013.2
20260905042524 62 0 0.0 0.0 0.00 0.00 0.00 95 1013.3
20260905042024 62 0 0.0 0.0 0.00 0.00 0.00 95 1013.3
20260905041551 62 0 0.0 0.0 0.00 0.00 0.00 95 1013.2
20260905041023 62 0 0.0 0.0 0.00 0.00 0.00 94 1013.2
20260905040524 62 0 0.0 0.0 0.00 0.00 0.00 94 1013.3
20260905040045 62 0 0.0 0.0 0.00 0.00 0.00 94 1013.2
20260905035523 62 0 0.0 0.0 0.00 0.00 0.00 94 1013.2
20260905035020 62 0 0.0 0.0 0.00 0.00 0.00 94 1013.2
20260905034548 62 0 0.0 0.0 0.00 0.00 0.00 94 1013.2
20260905034020 62 0 0.0 0.0 0.00 0.00 0.00 94 1013.1
20260905033521 61 0 0.0 0.0 0.00 0.00 0.00 94 1013.1
20260905033041 61 0 0.0 0.0 0.00 0.00 0.00 94 1013.2
20260905032524 61 0 0.0 0.0 0.00 0.00 0.00 94 1013.2
20260905032023 61 0 0.0 0.0 0.00 0.00 0.00 94 1013.2
20260905031544 61 0 0.0 0.0 0.00 0.00 0.00 93 1013.3
20260905031028 61 0 0.0 0.0 0.00 0.00 0.00 93 1013.0
20260905030524 62 0 0.0 0.0 0.00 0.00 0.00 94 1013.1
20260905030046 62 0 0.0 0.0 0.00 0.00 0.00 94 1013.1
20260905025520 61 0 0.0 0.0 0.00 0.00 0.00 94 1013.3
20260905025023 61 0 0.0 0.0 0.00 0.00 0.00 94 1013.2
20260905024541 61 0 0.0 0.0 0.00 0.00 0.00 94 1013.2
20260905024021 61 0 0.0 0.0 0.00 0.00 0.00 94 1013.2
20260905023518 61 0 0.0 0.0 0.00 0.00 0.00 94 1013.2
20260905023038 61 0 0.0 0.0 0.00 0.00 0.00 93 1013.2
20260905022523 61 0 0.0 0.0 0.00 0.00 0.00 93 1013.2
20260905022025 62 0 0.0 0.0 0.00 0.00 0.00 93 1013.1
20260905021546 62 0 0.0 0.0 0.00 0.00 0.00 93 1013.3
20260905021021 62 0 0.0 0.0 0.00 0.00 0.00 93 1013.4
20260905020524 62 0 0.0 0.0 0.00 0.00 0.00 93 1013.3
20260905020043 62 0 0.0 0.0 0.00 0.00 0.00 93 1013.2
20260905015523 62 0 0.0 0.0 0.00 0.00 0.00 93 1013.3
20260905015020 62 0 0.0 0.0 0.00 0.00 0.00 93 1013.3
20260905014542 62 0 0.0 0.0 0.00 0.00 0.00 92 1013.4
20260905014018 62 0 0.0 0.0 0.00 0.00 0.00 92 1013.4
20260905013526 62 0 0.0 0.0 0.00 0.00 0.00 92 1013.4
20260905013056 62 0 0.0 0.0 0.00 0.00 0.00 92 1013.4
20260905012524 62 0 0.0 0.0 0.00 0.00 0.00 91 1013.4
20260905012024 62 0 0.0 0.0 0.00 0.00 0.00 91 1013.3
20260905011540 63 0 0.0 0.0 0.00 0.00 0.00 91 1013.3
20260905011027 63 0 0.0 0.0 0.00 0.00 0.00 91 1013.3
20260905010521 63 0 0.0 0.0 0.00 0.00 0.00 91 1013.2
20260905010043 64 0 0.0 0.0 0.00 0.00 0.00 91 1013.2
20260905005521 64 0 0.0 0.0 0.00 0.00 0.00 91 1013.2
20260905005020 64 0 0.0 0.0 0.00 0.00 0.00 90 1013.2
20260905004609 64 0 0.0 0.0 0.00 0.00 0.00 89 1013.1
20260905004019 64 0 0.0 0.0 0.00 0.00 0.00 89 1013.1
20260905003528 65 0 0.0 0.0 0.00 0.00 0.00 90 1013.0
20260905003043 65 0 0.0 0.0 0.00 0.00 0.00 90 1013.1
20260905002524 65 0 0.0 1.0 0.00 0.00 0.00 90 1013.0
20260905002026 65 0 0.0 1.0 0.00 0.00 0.00 89 1013.0
20260905001554 65 0 0.0 1.0 0.00 0.00 0.00 89 1013.2
20260905001022 66 44 0.0 1.0 0.00 0.00 0.00 89 1013.2
20260905000521 66 0 0.0 1.0 0.00 0.00 0.00 89 1013.1
20260905000048 66 46 0.0 1.0 0.00 0.00 0.00 90 1013.0
20260904235520 66 0 0.0 1.0 0.00 0.00 0.00 90 1013.0
20260904235018 66 0 0.0 1.0 0.00 0.00 0.00 90 1012.8
20260904234541 66 0 0.0 1.0 0.00 0.00 0.00 90 1012.8
20260904234023 67 0 0.0 1.0 0.00 0.00 0.00 90 1012.8
20260904233524 67 48 0.0 1.0 0.00 0.00 0.00 90 1012.8
20260904233043 67 0 0.0 1.0 0.00 0.00 0.00 90 1012.7
20260904232524 67 0 0.0 1.0 0.00 0.00 0.00 89 1012.7
20260904232024 67 0 0.0 1.0 0.00 0.00 0.00 90 1012.7
20260904231543 68 0 0.0 1.0 0.00 0.00 0.00 89 1012.7
20260904231023 68 0 0.0 1.0 0.00 0.00 0.00 89 1012.8
20260904230520 68 49 0.0 1.0 0.00 0.00 0.00 88 1012.6
20260904230043 68 50 0.0 1.0 0.00 0.00 0.00 88 1012.5
20260904225519 69 0 0.0 0.0 0.00 0.00 0.00 88 1012.6
20260904225024 69 0 0.0 0.0 0.00 0.00 0.00 88 1012.6
20260904224541 69 0 0.0 0.0 0.00 0.00 0.00 88 1012.5
20260904224024 70 0 0.0 0.0 0.00 0.00 0.00 87 1012.4
20260904223524 70 0 0.0 0.0 0.00 0.00 0.00 87 1012.5
20260904223044 70 0 0.0 0.0 0.00 0.00 0.00 87 1012.5
20260904222525 70 0 0.0 1.0 0.00 0.00 0.00 85 1012.4
20260904222023 71 340 0.0 1.0 0.00 0.00 0.00 84 1012.5